TimeAST,TemperatureF,Dew PointF,Humidity,Sea Level PressureIn,VisibilityMPH,Wind Direction,Wind SpeedMPH,Gust SpeedMPH,PrecipitationIn,Events,Conditions,WindDirDegrees,DateUTC
12:00 AM,67,41,27,30.00,6,North,2.3,,,,,0,2012-10-31 21:00:00
12:00 AM,68.0,41.0,37,30.04,-9999.0,North,2.3,-,N/A,,Clear,360,2012-10-31 21:00:00
1:00 AM,66.2,39.2,37,30.04,-9999.0,Calm,Calm,-,N/A,,Clear,0,2012-10-31 22:00:00
2:00 AM,64.4,41.0,42,30.04,-9999.0,Calm,Calm,-,N/A,,Clear,0,2012-10-31 23:00:00
3:00 AM,63,41,33,29.99,6,Calm,Calm,,,,,,2012-11-01 00:00:00
3:00 AM,62.6,41.0,45,30.04,-9999.0,Calm,Calm,-,N/A,,Clear,0,2012-11-01 00:00:00
4:00 AM,62.6,41.0,45,30.04,-9999.0,Calm,Calm,-,N/A,,Clear,0,2012-11-01 01:00:00
5:00 AM,62.6,41.0,45,30.04,-9999.0,Calm,Calm,-,N/A,,Clear,0,2012-11-01 02:00:00
6:00 AM,62,41,34,30.03,6,Calm,Calm,,,,,,2012-11-01 03:00:00
6:00 AM,62.6,41.0,45,30.06,-9999.0,Calm,Calm,-,N/A,,Clear,0,2012-11-01 03:00:00
7:00 AM,59.0,39.2,48,30.06,-9999.0,Calm,Calm,-,N/A,,Clear,0,2012-11-01 04:00:00
8:00 AM,66.2,41.0,40,30.09,-9999.0,Calm,Calm,-,N/A,,Clear,0,2012-11-01 05:00:00
9:00 AM,74,39,18,30.06,6,West,4.6,,,,,270,2012-11-01 06:00:00
9:00 AM,73.4,39.2,29,30.09,-9999.0,West,4.6,-,N/A,,Clear,270,2012-11-01 06:00:00
10:00 AM,78.8,39.2,24,30.09,-9999.0,Calm,Calm,-,N/A,,Clear,0,2012-11-01 07:00:00
11:00 AM,82.4,41.0,23,30.09,-9999.0,Calm,Calm,-,N/A,,Clear,0,2012-11-01 08:00:00
12:00 PM,86,41,12,30.01,6,Calm,Calm,,,,,,2012-11-01 09:00:00
12:00 PM,86.0,41.0,20,30.06,-9999.0,Calm,Calm,-,N/A,,Clear,0,2012-11-01 09:00:00
1:00 PM,84.2,39.2,20,30.04,-9999.0,North,6.9,-,N/A,,Clear,360,2012-11-01 10:00:00
2:00 PM,84.2,39.2,20,30.01,-9999.0,North,4.6,-,N/A,,Clear,360,2012-11-01 11:00:00
3:00 PM,84,37,11,29.97,6,North,4.6,,,,,0,2012-11-01 12:00:00
3:00 PM,84.2,37.4,19,30.01,-9999.0,North,4.6,-,N/A,,Clear,360,2012-11-01 12:00:00
4:00 PM,82.4,37.4,20,30.01,-9999.0,North,4.6,-,N/A,,Clear,360,2012-11-01 13:00:00
5:00 PM,80.6,37.4,21,30.01,-9999.0,North,6.9,-,N/A,,Clear,360,2012-11-01 14:00:00
6:00 PM,79,37,13,29.97,6,NNE,6.9,,,,,30,2012-11-01 15:00:00
6:00 PM,78.8,37.4,23,30.01,-9999.0,NNE,6.9,-,N/A,,Clear,30,2012-11-01 15:00:00
7:00 PM,77.0,37.4,24,30.01,-9999.0,NNE,6.9,-,N/A,,Clear,30,2012-11-01 16:00:00
8:00 PM,75.2,37.4,25,30.01,-9999.0,NNE,4.6,-,N/A,,Clear,30,2012-11-01 17:00:00
9:00 PM,75,37,16,29.99,6,NNE,4.6,,,,,30,2012-11-01 18:00:00
9:00 PM,75.2,37.4,25,30.01,-9999.0,NNE,4.6,-,N/A,,Clear,30,2012-11-01 18:00:00
10:00 PM,73.4,37.4,27,30.04,-9999.0,Calm,Calm,-,N/A,,Clear,0,2012-11-01 19:00:00
11:00 PM,71.6,37.4,29,30.04,-9999.0,Calm,Calm,-,N/A,,Clear,0,2012-11-01 20:00:00